Voltar ao catálogo

NOAA 16 DEB

AtivoSSO
NORAD 41280·DEBRIS·🇺🇸 United States

Lançado Sep 21, 2000 de Vandenberg Space Force Base

Loading…

Próximas Passagens (próximas 24 horas)

TLE

AtualizadoSource: Space-Track

Época: Sep 13, 2026, 05:31 UTC

1 41280U 00055GG  26256.23010380  .00002161  00000-0  99082-3 0  9994
2 41280  98.6685 257.7115 0026494 303.4587  56.4059 14.22166221551773

Acompanhe NOAA 16 DEB em tempo real com AllMySat

Download on the App Store